Location: Rounton
(54.4000°N, 1.3500°W)
Time: 12:36:19
(UTC+00:00)

Transit 2A Rocket - Pass Details

Date: 07 December 2021
Orbit: 584 x 918 km, 66.7° (Epoch: 17 January)

Event Time Altitude Azimuth Distance (km) Brightness Sun altitude
Rises 14:32:47 0° 317° (NW) 3,567 8.3 6.0°
Reaches altitude 10° 14:35:21 10° 319° (NW) 2,622 7.7 5.8°
Maximum altitude 14:41:32 79° 46° (NE) 925 5.5 5.2°
Drops below altitude 10° 14:47:25 10° 133° (SE) 2,503 7.8 4.7°
Sets 14:49:49 0° 135° (SE) 3,396 8.4 4.5°
